When you browse on this site, cookies collect data to enhance your experience and personalize the content and advertising you see.
Visit our Privacy Policy to learn more. By continuing to use the site, you agree to this use of cookies and data.
  • In Switzerland
  • List of Countries
  • For 7 days
  • Water Temperature
  • Weather Map
  • Weather Widgets
  • user-avatar
    Login

    Hourly Weather Maidstone

    Today, 18 September, Wednesday

    Time Temperature Precipitation Wind Pressure Humidity
    00:00 +10°C° 0 mm 3 mps 768 mmHg 75%
    01:00 +10°C° 0 mm 3 mps 768 mmHg 78%
    02:00 +9°C° 0 mm 3 mps 768 mmHg 80%
    03:00 +9°C° 0 mm 3 mps 768 mmHg 83%
    04:00 +9°C° 0 mm 3 mps 769 mmHg 83%
    05:00 +9°C° 0 mm 3 mps 769 mmHg 84%
    06:00 +9°C° 0 mm 3 mps 769 mmHg 82%
    07:00 +11°C° 0 mm 3 mps 769 mmHg 74%
    08:00 +12°C° 0 mm 3 mps 769 mmHg 66%
    09:00 +14°C° 0 mm 3 mps 770 mmHg 59%
    10:00 +16°C° 0 mm 3 mps 770 mmHg 54%
    11:00 +17°C° 0 mm 4 mps 769 mmHg 49%
    12:00 +18°C° 0 mm 4 mps 769 mmHg 45%
    13:00 +18°C° 0 mm 4 mps 769 mmHg 45%
    14:00 +18°C° 0 mm 3 mps 769 mmHg 46%
    15:00 +18°C° 0 mm 3 mps 769 mmHg 46%
    16:00 +17°C° 0 mm 3 mps 769 mmHg 53%
    17:00 +14°C° 0 mm 3 mps 769 mmHg 59%
    18:00 +13°C° 0 mm 3 mps 769 mmHg 66%
    19:00 +13°C° 0 mm 2 mps 769 mmHg 70%
    20:00 +12°C° 0 mm 2 mps 770 mmHg 75%
    21:00 +12°C° 0 mm 2 mps 770 mmHg 79%
    22:00 +11°C° 0 mm 1 mps 770 mmHg 81%
    23:00 +11°C° 0 mm 1 mps 770 mmHg 82%

    Tomorrow, 19 September, Thursday

    Time Temperature Precipitation Wind Pressure Humidity
    00:00 +11°C° 0 mm 1 mps 770 mmHg 83%
    01:00 +11°C° 0 mm 1 mps 770 mmHg 84%
    02:00 +11°C° 0 mm 1 mps 770 mmHg 84%
    03:00 +11°C° 0 mm 1 mps 770 mmHg 84%
    04:00 +11°C° 0 mm 1 mps 770 mmHg 85%
    05:00 +11°C° 0 mm 1 mps 770 mmHg 85%
    06:00 +11°C° 0 mm 1 mps 770 mmHg 85%
    07:00 +13°C° 0 mm 2 mps 770 mmHg 77%
    08:00 +15°C° 0 mm 2 mps 771 mmHg 69%
    09:00 +17°C° 0 mm 2 mps 771 mmHg 60%
    10:00 +18°C° 0 mm 3 mps 771 mmHg 58%
    11:00 +18°C° 0 mm 4 mps 771 mmHg 55%
    12:00 +19°C° 0 mm 4 mps 770 mmHg 53%
    13:00 +19°C° 0 mm 4 mps 770 mmHg 54%
    14:00 +19°C° 0 mm 4 mps 770 mmHg 55%
    15:00 +19°C° 0 mm 4 mps 770 mmHg 56%
    16:00 +17°C° 0 mm 4 mps 770 mmHg 63%
    17:00 +16°C° 0 mm 3 mps 769 mmHg 69%
    18:00 +13°C° 0 mm 3 mps 769 mmHg 76%
    19:00 +13°C° 0 mm 3 mps 769 mmHg 80%
    20:00 +12°C° 0 mm 3 mps 770 mmHg 84%
    21:00 +11°C° 0 mm 3 mps 770 mmHg 87%
    22:00 +11°C° 0 mm 3 mps 770 mmHg 88%
    23:00 +11°C° 0 mm 3 mps 770 mmHg 89%

    Day after tomorrow, 20 September, Friday

    Time Temperature Precipitation Wind Pressure Humidity
    00:00 +11°C° 0 mm 3 mps 769 mmHg 89%
    01:00 +11°C° 0 mm 3 mps 769 mmHg 89%
    02:00 +11°C° 0 mm 3 mps 769 mmHg 88%
    03:00 +11°C° 0 mm 3 mps 769 mmHg 87%
    04:00 +10°C° 0 mm 3 mps 768 mmHg 87%
    05:00 +10°C° 0 mm 3 mps 768 mmHg 86%
    06:00 +10°C° 0 mm 3 mps 768 mmHg 85%
    07:00 +12°C° 0 mm 4 mps 768 mmHg 74%
    08:00 +14°C° 0 mm 5 mps 768 mmHg 63%
    09:00 +16°C° 0 mm 6 mps 767 mmHg 52%
    10:00 +16°C° 0 mm 6 mps 767 mmHg 48%
    11:00 +17°C° 0 mm 6 mps 766 mmHg 44%
    12:00 +19°C° 0 mm 6 mps 766 mmHg 40%
    13:00 +19°C° 0 mm 6 mps 765 mmHg 41%
    14:00 +18°C° 0 mm 7 mps 764 mmHg 41%
    15:00 +18°C° 0 mm 7 mps 764 mmHg 41%
    16:00 +17°C° 0 mm 6 mps 763 mmHg 46%
    17:00 +16°C° 0 mm 6 mps 763 mmHg 51%
    18:00 +15°C° 0 mm 6 mps 762 mmHg 56%
    19:00 +15°C° 0 mm 6 mps 762 mmHg 56%
    20:00 +15°C° 0 mm 6 mps 762 mmHg 56%
    21:00 +15°C° 0 mm 6 mps 762 mmHg 57%
    22:00 +14°C° 0 mm 6 mps 761 mmHg 57%
    23:00 +14°C° 0 mm 6 mps 761 mmHg 57%

    21 September, Saturday

    Time Temperature Precipitation Wind Pressure Humidity
    00:00 +14°C° 0 mm 5 mps 760 mmHg 57%
    01:00 +13°C° 0 mm 5 mps 760 mmHg 60%
    02:00 +13°C° 0 mm 5 mps 759 mmHg 62%
    03:00 +12°C° 0 mm 5 mps 759 mmHg 64%
    04:00 +12°C° 0 mm 5 mps 758 mmHg 66%
    05:00 +10°C° 0 mm 5 mps 758 mmHg 69%
    06:00 +10°C° 0 mm 5 mps 757 mmHg 72%
    07:00 +13°C° 0 mm 5 mps 757 mmHg 67%
    08:00 +14°C° 0 mm 5 mps 757 mmHg 62%
    09:00 +16°C° 0 mm 5 mps 757 mmHg 56%
    10:00 +17°C° 0 mm 5 mps 757 mmHg 54%
    11:00 +20°C° 0 mm 5 mps 756 mmHg 52%
    12:00 +21°C° 0 mm 5 mps 755 mmHg 49%
    13:00 +22°C° 0 mm 5 mps 755 mmHg 50%
    14:00 +23°C° 0 mm 5 mps 754 mmHg 50%
    15:00 +23°C° 0 mm 5 mps 753 mmHg 51%
    16:00 +22°C° 0 mm 4 mps 753 mmHg 56%
    17:00 +21°C° 0 mm 4 mps 753 mmHg 61%
    18:00 +20°C° 0 mm 4 mps 753 mmHg 65%
    19:00 +20°C° 0 mm 4 mps 752 mmHg 68%
    20:00 +20°C° 0 mm 4 mps 752 mmHg 70%
    21:00 +20°C° 0 mm 4 mps 752 mmHg 73%
    22:00 +19°C° 0.2 mm 4 mps 752 mmHg 75%
    23:00 +19°C° 0.2 mm 4 mps 751 mmHg 77%

    22 September, Sunday

    Time Temperature Precipitation Wind Pressure Humidity
    00:00 +19°C° 0.2 mm 4 mps 751 mmHg 79%
    01:00 +19°C° 0.1 mm 3 mps 751 mmHg 83%
    02:00 +18°C° 0.1 mm 3 mps 751 mmHg 87%
    03:00 +18°C° 0.1 mm 2 mps 751 mmHg 91%
    04:00 +18°C° 0.4 mm 3 mps 751 mmHg 92%
    05:00 +18°C° 0.4 mm 4 mps 751 mmHg 93%
    06:00 +17°C° 0.4 mm 5 mps 751 mmHg 94%
    07:00 +17°C° 0.6 mm 5 mps 751 mmHg 92%
    08:00 +16°C° 0.6 mm 5 mps 751 mmHg 90%
    09:00 +15°C° 0.6 mm 5 mps 752 mmHg 87%
    10:00 +16°C° 0.2 mm 5 mps 752 mmHg 86%
    11:00 +17°C° 0.2 mm 4 mps 752 mmHg 84%
    12:00 +17°C° 0.2 mm 4 mps 752 mmHg 83%
    13:00 +17°C° 0 mm 5 mps 752 mmHg 74%
    14:00 +19°C° 0 mm 5 mps 752 mmHg 66%
    15:00 +20°C° 0 mm 6 mps 753 mmHg 57%
    16:00 +19°C° 0 mm 6 mps 753 mmHg 62%
    17:00 +17°C° 0 mm 5 mps 753 mmHg 68%
    18:00 +16°C° 0 mm 5 mps 753 mmHg 73%
    19:00 +15°C° 0 mm 5 mps 754 mmHg 75%
    20:00 +14°C° 0 mm 5 mps 754 mmHg 78%
    21:00 +13°C° 0 mm 5 mps 755 mmHg 80%
    22:00 +13°C° 0 mm 4 mps 755 mmHg 82%
    23:00 +13°C° 0 mm 4 mps 755 mmHg 85%

    23 September, Monday

    Time Temperature Precipitation Wind Pressure Humidity
    00:00 +12°C° 0 mm 4 mps 755 mmHg 88%
    01:00 +12°C° 0 mm 4 mps 756 mmHg 89%
    02:00 +11°C° 0 mm 3 mps 756 mmHg 90%
    03:00 +12°C° 0 mm 2 mps 756 mmHg 91%
    04:00 +12°C° 0 mm 2 mps 756 mmHg 91%
    05:00 +12°C° 0 mm 2 mps 756 mmHg 90%
    06:00 +11°C° 0 mm 3 mps 756 mmHg 90%
    07:00 +13°C° 0 mm 4 mps 756 mmHg 83%
    08:00 +15°C° 0 mm 5 mps 757 mmHg 76%
    09:00 +17°C° 0 mm 5 mps 757 mmHg 69%
    10:00 +17°C° 0.1 mm 6 mps 756 mmHg 69%
    11:00 +17°C° 0.1 mm 7 mps 756 mmHg 70%
    12:00 +17°C° 0.1 mm 7 mps 756 mmHg 70%
    13:00 +17°C° 0.1 mm 7 mps 755 mmHg 75%
    14:00 +16°C° 0.1 mm 7 mps 755 mmHg 81%
    15:00 +15°C° 0.1 mm 7 mps 754 mmHg 86%
    16:00 +16°C° 0.1 mm 6 mps 754 mmHg 88%
    17:00 +16°C° 0.1 mm 5 mps 754 mmHg 91%
    18:00 +16°C° 0.1 mm 5 mps 754 mmHg 93%
    19:00 +16°C° 0.2 mm 5 mps 754 mmHg 94%
    20:00 +17°C° 0.2 mm 5 mps 754 mmHg 94%
    21:00 +17°C° 0.2 mm 5 mps 755 mmHg 95%
    22:00 +17°C° 0.1 mm 5 mps 755 mmHg 94%
    23:00 +17°C° 0.1 mm 5 mps 755 mmHg 93%
    Show more